STARLINK-31083 (58670 NORAD) Tracking and Keplerian Element Data

This shows tracking and keplerian element data for the satellite.

Feedback or suggestion? Click here.




ElementValue
Catalog58670
NameSTARLINK-31083
Epoch Orbit338
Epoch Day12.91667824
Epoch Year2024
RAAN204.1142
Inclination42.9998
Eccentricity0.0002006
Argument of Perigee246.3516
Mean Anonmoly344.3812
Mean Motion15.73991046
Decay Rate-0.01561547
L11 58670U 23211D 24012.91667824 -.01561547 00000+0 -11914-1 0 9994
L22 58670 42.9998 204.1142 0002006 246.3516 344.3812 15.73991046 3382



Live tracking and technical data element details for STARLINK-31083 (NORAD 58670). STARLINK-31083 can be tracked NOW for your location showing map with azimuth and elevation plus other details from your city location.







IsCatalogInMostPopularTable: catalog: 58670, numindb: 23
Update: records affected: 1



GetName: 58670 STARLINK-31083

Hit Count: updated at: Wed, 17 Apr 2024 02:56:17 GMT